{"data":{"norad_id":56349,"intl_designator":"2023-058AJ","name":"STARLINK-5887","alt_names":[],"object_type":"PAYLOAD","status":"ACTIVE","operator":null,"country":"US","launch_date":"2023-04-27","launch_site_code":"AFWTR","launch_vehicle":null,"mission":null,"orbit_class":"UNKNOWN","rcs_meters":null,"size_class":null,"mass_kg":null,"dimensions":null,"purposes":["comms"],"wikipedia_slug":null,"has_3d_model":false,"image_url":null,"decayed_at":null,"tle_current":{"epoch":"2026-05-24T23:05:42.967104Z","epoch_age_seconds":78021,"freshness":"FRESH","line1":"1 56349U 23058AJ  26144.96230286  .00000049  00000+0  74288-5 0  9994","line2":"2 56349  97.4485 144.9708 0002122  66.7223 293.4228 15.05658747169602","mean_motion":15.05658747,"eccentricity":0.0002122,"inclination_deg":97.4485,"raan_deg":144.9708,"arg_perigee_deg":66.7223,"mean_anomaly_deg":293.4228,"bstar":7.4288e-6,"rev_number":16960,"period_min":95.639201304358,"perigee_km":548.01428236882,"apogee_km":550.95436485856,"semimajor_km":6927.6213236137,"source":"CELESTRAK","updated_at":"2026-05-25T13:38:18.006631Z"}}}